Time,TemperatureF,DewpointF,PressureIn,WindDirection,WindDirectionDegrees,WindSpeedMPH,WindSpeedGustMPH,Humidity,HourlyPrecipIn,Conditions,Clouds,dailyrainin,SoftwareType,DateUTC
2013-02-22 00:02:00,33.0,25.0,30.06,North,355,15.0,30.0,71,0.00,,,0.00,,2013-02-22 05:02:00,
2013-02-22 00:12:00,33.0,25.0,30.06,North,355,15.0,30.0,71,0.00,,,0.00,,2013-02-22 05:12:00,
2013-02-22 00:22:00,33.0,24.0,30.08,NNE,12,12.0,25.0,70,0.00,,,0.00,,2013-02-22 05:22:00,
2013-02-22 00:32:00,33.0,24.0,30.09,North,5,15.0,27.0,68,0.00,,,0.00,,2013-02-22 05:32:00,
2013-02-22 00:42:00,33.0,24.0,30.09,North,5,15.0,27.0,68,0.00,,,0.00,,2013-02-22 05:42:00,
2013-02-22 00:52:00,33.0,24.0,30.10,North,355,13.0,25.0,68,0.00,,,0.00,,2013-02-22 05:52:00,
2013-02-22 01:02:00,33.0,24.0,30.10,NNE,14,12.0,20.0,68,0.00,,,0.00,,2013-02-22 06:02:00,
2013-02-22 01:12:00,33.0,24.0,30.10,NNE,14,12.0,20.0,68,0.00,,,0.00,,2013-02-22 06:12:00,
2013-02-22 01:22:00,32.0,23.0,30.11,NNE,26,12.0,25.0,69,0.00,,,0.00,,2013-02-22 06:22:00,
2013-02-22 01:32:00,32.0,23.0,30.13,North,355,11.0,23.0,69,0.00,,,0.00,,2013-02-22 06:32:00,
2013-02-22 01:42:00,32.0,23.0,30.13,North,355,11.0,23.0,69,0.00,,,0.00,,2013-02-22 06:42:00,
2013-02-22 01:51:00,32.0,23.0,30.13,North,5,14.0,25.0,68,0.00,,,0.00,,2013-02-22 06:51:00,
2013-02-22 02:01:00,31.0,22.0,30.15,North,355,12.0,20.0,70,0.00,,,0.00,,2013-02-22 07:01:00,
2013-02-22 02:11:00,30.0,22.0,30.15,NNW,348,11.0,18.0,71,0.00,,,0.00,,2013-02-22 07:11:00,
2013-02-22 02:22:00,30.0,22.0,30.15,NNW,348,11.0,18.0,71,0.00,,,0.00,,2013-02-22 07:22:00,
2013-02-22 02:32:00,30.0,22.0,30.16,NNW,327,10.0,23.0,71,0.00,,,0.00,,2013-02-22 07:32:00,
2013-02-22 02:42:00,30.0,21.0,30.17,North,351,11.0,21.0,70,0.00,,,0.00,,2013-02-22 07:42:00,
2013-02-22 02:51:00,30.0,21.0,30.17,North,351,11.0,21.0,70,0.00,,,0.00,,2013-02-22 07:51:00,
2013-02-22 03:01:00,31.0,22.0,30.19,NNW,341,9.0,22.0,70,0.00,,,0.00,,2013-02-22 08:01:00,
2013-02-22 03:11:00,31.0,22.0,30.19,North,360,14.0,22.0,69,0.00,,,0.00,,2013-02-22 08:11:00,
2013-02-22 03:21:00,31.0,22.0,30.19,North,360,14.0,22.0,69,0.00,,,0.00,,2013-02-22 08:21:00,
2013-02-22 03:32:00,30.0,21.0,30.20,NNW,339,10.0,21.0,68,0.00,,,0.00,,2013-02-22 08:32:00,
2013-02-22 03:42:00,30.0,21.0,30.20,NNW,339,10.0,21.0,68,0.00,,,0.00,,2013-02-22 08:42:00,
2013-02-22 03:52:00,30.0,21.0,30.21,NNW,344,10.0,16.0,69,0.00,,,0.00,,2013-02-22 08:52:00,
2013-02-22 04:03:00,29.0,20.0,30.20,NNE,13,10.0,26.0,70,0.00,,,0.00,,2013-02-22 09:03:00,
2013-02-22 04:11:00,29.0,21.0,30.21,North,11,12.0,24.0,71,0.00,,,0.00,,2013-02-22 09:11:00,
2013-02-22 04:21:00,29.0,21.0,30.21,North,11,12.0,24.0,71,0.00,,,0.00,,2013-02-22 09:21:00,
2013-02-22 04:32:00,29.0,20.0,30.22,NNE,12,10.0,23.0,70,0.00,,,0.00,,2013-02-22 09:32:00,
2013-02-22 04:42:00,29.0,21.0,30.22,North,360,13.0,23.0,71,0.00,,,0.00,,2013-02-22 09:42:00,
2013-02-22 04:51:00,29.0,21.0,30.22,North,360,13.0,23.0,71,0.00,,,0.00,,2013-02-22 09:51:00,
2013-02-22 05:01:00,28.0,20.0,30.23,NNW,345,13.0,26.0,71,0.00,,,0.00,,2013-02-22 10:01:00,
2013-02-22 05:11:00,28.0,20.0,30.24,NNE,25,12.0,24.0,71,0.00,,,0.00,,2013-02-22 10:11:00,
2013-02-22 05:21:00,28.0,20.0,30.24,NNE,25,12.0,24.0,71,0.00,,,0.00,,2013-02-22 10:21:00,
2013-02-22 05:32:00,28.0,20.0,30.25,NNW,336,9.0,20.0,71,0.00,,,0.00,,2013-02-22 10:32:00,
2013-02-22 05:42:00,28.0,20.0,30.25,NNW,336,9.0,20.0,71,0.00,,,0.00,,2013-02-22 10:42:00,
2013-02-22 05:51:00,28.0,20.0,30.25,NNW,348,9.0,16.0,73,0.00,,,0.00,,2013-02-22 10:51:00,
2013-02-22 06:01:00,27.0,20.0,30.26,North,360,8.0,18.0,73,0.00,,,0.00,,2013-02-22 11:01:00,
2013-02-22 06:11:00,27.0,20.0,30.26,North,360,9.0,19.0,73,0.00,,,0.00,,2013-02-22 11:11:00,
2013-02-22 06:22:00,27.0,20.0,30.26,North,360,9.0,19.0,73,0.00,,,0.00,,2013-02-22 11:22:00,
2013-02-22 06:32:00,27.0,20.0,30.27,North,360,9.0,16.0,73,0.00,,,0.00,,2013-02-22 11:32:00,
2013-02-22 06:42:00,27.0,20.0,30.27,North,360,9.0,16.0,73,0.00,,,0.00,,2013-02-22 11:42:00,
2013-02-22 06:52:00,27.0,20.0,30.29,NNW,346,7.0,15.0,73,0.00,,,0.00,,2013-02-22 11:52:00,
2013-02-22 07:02:00,27.0,20.0,30.29,North,360,10.0,19.0,73,0.00,,,0.00,,2013-02-22 12:02:00,
2013-02-22 07:11:00,27.0,20.0,30.29,North,360,10.0,19.0,73,0.00,,,0.00,,2013-02-22 12:11:00,
2013-02-22 07:22:00,27.0,20.0,30.30,NNW,340,8.0,15.0,74,0.00,,,0.00,,2013-02-22 12:22:00,
2013-02-22 07:32:00,27.0,20.0,30.30,NNE,13,10.0,18.0,73,0.00,,,0.00,,2013-02-22 12:32:00,
2013-02-22 07:42:00,27.0,20.0,30.30,NNE,13,10.0,18.0,73,0.00,,,0.00,,2013-02-22 12:42:00,
2013-02-22 07:52:00,28.0,20.0,30.30,North,355,10.0,22.0,72,0.00,,,0.00,,2013-02-22 12:52:00,
2013-02-22 08:02:00,28.0,20.0,30.32,NE,36,7.0,20.0,71,0.00,,,0.00,,2013-02-22 13:02:00,
2013-02-22 08:11:00,28.0,20.0,30.32,NE,36,7.0,20.0,71,0.00,,,0.00,,2013-02-22 13:11:00,
2013-02-22 08:22:00,29.0,20.0,30.33,NE,38,11.0,17.0,69,0.00,,,0.00,,2013-02-22 13:22:00,
2013-02-22 08:32:00,29.0,19.0,30.34,NE,36,11.0,21.0,67,0.00,,,0.00,,2013-02-22 13:32:00,
2013-02-22 08:42:00,29.0,19.0,30.34,NE,36,11.0,21.0,67,0.00,,,0.00,,2013-02-22 13:42:00,
2013-02-22 08:52:00,29.0,19.0,30.34,NNE,19,11.0,18.0,67,0.00,,,0.00,,2013-02-22 13:52:00,
2013-02-22 09:01:00,30.0,19.0,30.35,NE,36,10.0,17.0,64,0.00,,,0.00,,2013-02-22 14:01:00,
2013-02-22 09:11:00,30.0,19.0,30.35,North,355,11.0,22.0,64,0.00,,,0.00,,2013-02-22 14:11:00,
2013-02-22 09:21:00,30.0,19.0,30.35,North,355,11.0,22.0,64,0.00,,,0.00,,2013-02-22 14:21:00,
2013-02-22 09:32:00,31.0,19.0,30.37,NNE,30,11.0,19.0,61,0.00,,,0.00,,2013-02-22 14:32:00,
2013-02-22 09:42:00,31.0,20.0,30.36,NNE,20,13.0,19.0,62,0.00,,,0.00,,2013-02-22 14:42:00,
2013-02-22 09:52:00,31.0,20.0,30.36,NNE,20,13.0,19.0,62,0.00,,,0.00,,2013-02-22 14:52:00,
2013-02-22 10:02:00,33.0,20.0,30.37,North,355,6.0,16.0,59,0.00,,,0.00,,2013-02-22 15:02:00,
2013-02-22 10:11:00,32.0,19.0,30.37,NNE,13,12.0,18.0,58,0.00,,,0.00,,2013-02-22 15:11:00,
2013-02-22 10:22:00,32.0,19.0,30.37,NNE,13,12.0,18.0,58,0.00,,,0.00,,2013-02-22 15:22:00,
2013-02-22 10:32:00,34.0,20.0,30.37,NNE,22,10.0,17.0,56,0.00,,,0.00,,2013-02-22 15:32:00,
2013-02-22 10:42:00,34.0,20.0,30.37,NNE,22,10.0,17.0,56,0.00,,,0.00,,2013-02-22 15:42:00,
2013-02-22 10:52:00,34.0,20.0,30.37,North,355,9.0,17.0,55,0.00,,,0.00,,2013-02-22 15:52:00,
2013-02-22 11:02:00,34.0,20.0,30.36,ENE,57,11.0,21.0,55,0.00,,,0.00,,2013-02-22 16:02:00,
2013-02-22 11:12:00,34.0,19.0,30.36,NNE,23,12.0,19.0,54,0.00,,,0.00,,2013-02-22 16:12:00,
2013-02-22 11:22:00,34.0,19.0,30.36,NNE,23,12.0,19.0,54,0.00,,,0.00,,2013-02-22 16:22:00,
2013-02-22 11:32:00,36.0,20.0,30.36,NE,35,8.0,13.0,52,0.00,,,0.00,,2013-02-22 16:32:00,
2013-02-22 11:42:00,36.0,20.0,30.36,NE,35,8.0,13.0,52,0.00,,,0.00,,2013-02-22 16:42:00,
2013-02-22 11:52:00,36.0,19.0,30.36,NE,42,10.0,17.0,49,0.00,,,0.00,,2013-02-22 16:52:00,
2013-02-22 12:01:00,36.0,19.0,30.36,NNE,29,8.0,17.0,50,0.00,,,0.00,,2013-02-22 17:01:00,
2013-02-22 12:11:00,37.0,19.0,30.35,NNE,23,8.0,14.0,47,0.00,,,0.00,,2013-02-22 17:11:00,
2013-02-22 12:21:00,37.0,19.0,30.35,NNE,23,8.0,14.0,47,0.00,,,0.00,,2013-02-22 17:21:00,
2013-02-22 12:32:00,38.0,20.0,30.35,NE,36,9.0,17.0,48,0.00,,,0.00,,2013-02-22 17:32:00,
2013-02-22 12:42:00,38.0,20.0,30.35,NE,36,9.0,17.0,48,0.00,,,0.00,,2013-02-22 17:42:00,
2013-02-22 12:52:00,37.0,20.0,30.34,NNW,347,9.0,14.0,49,0.00,,,0.00,,2013-02-22 17:52:00,
2013-02-22 13:02:00,37.0,18.0,30.33,NE,40,6.0,15.0,46,0.00,,,0.00,,2013-02-22 18:02:00,
2013-02-22 13:12:00,38.0,19.0,30.33,North,5,9.0,16.0,45,0.00,,,0.00,,2013-02-22 18:12:00,
2013-02-22 13:22:00,38.0,19.0,30.33,North,5,9.0,16.0,45,0.00,,,0.00,,2013-02-22 18:22:00,
2013-02-22 13:32:00,38.0,20.0,30.34,NE,34,8.0,13.0,48,0.00,,,0.00,,2013-02-22 18:32:00,
2013-02-22 13:42:00,38.0,20.0,30.34,NE,34,8.0,13.0,48,0.00,,,0.00,,2013-02-22 18:42:00,
2013-02-22 13:51:00,38.0,19.0,30.34,ENE,65,5.0,14.0,45,0.00,,,0.00,,2013-02-22 18:51:00,
2013-02-22 14:01:00,38.0,19.0,30.34,NNW,336,5.0,13.0,45,0.00,,,0.00,,2013-02-22 19:01:00,
2013-02-22 14:11:00,38.0,18.0,30.33,NNE,16,3.0,12.0,43,0.00,,,0.00,,2013-02-22 19:11:00,
2013-02-22 14:21:00,38.0,18.0,30.33,NNE,16,3.0,12.0,43,0.00,,,0.00,,2013-02-22 19:21:00,
2013-02-22 14:31:00,38.0,18.0,30.33,WNW,296,7.0,16.0,44,0.00,,,0.00,,2013-02-22 19:31:00,
2013-02-22 14:41:00,39.0,20.0,30.32,North,11,5.0,13.0,47,0.00,,,0.00,,2013-02-22 19:41:00,
2013-02-22 14:52:00,39.0,20.0,30.32,North,11,5.0,13.0,47,0.00,,,0.00,,2013-02-22 19:52:00,
2013-02-22 15:01:00,38.0,18.0,30.32,NE,43,8.0,13.0,44,0.00,,,0.00,,2013-02-22 20:01:00,
2013-02-22 15:11:00,38.0,18.0,30.32,NE,43,8.0,13.0,44,0.00,,,0.00,,2013-02-22 20:11:00,
2013-02-22 15:21:00,38.0,18.0,30.32,NE,43,8.0,13.0,44,0.00,,,0.00,,2013-02-22 20:21:00,
2013-02-22 15:32:00,37.0,19.0,30.32,NNE,30,6.0,13.0,47,0.00,,,0.00,,2013-02-22 20:32:00,
2013-02-22 15:42:00,37.0,19.0,30.32,NNE,30,6.0,13.0,47,0.00,,,0.00,,2013-02-22 20:42:00,
2013-02-22 15:52:00,37.0,18.0,30.33,NNW,327,4.0,10.0,45,0.00,,,0.00,,2013-02-22 20:52:00,
2013-02-22 16:02:00,36.0,18.0,30.34,NW,315,3.0,9.0,48,0.00,,,0.00,,2013-02-22 21:02:00,
2013-02-22 16:11:00,36.0,18.0,30.34,NNW,345,4.0,9.0,48,0.00,,,0.00,,2013-02-22 21:11:00,
2013-02-22 16:21:00,36.0,18.0,30.34,NNW,345,4.0,9.0,48,0.00,,,0.00,,2013-02-22 21:21:00,
2013-02-22 16:32:00,37.0,18.0,30.34,NW,317,7.0,9.0,45,0.00,,,0.00,,2013-02-22 21:32:00,
2013-02-22 16:42:00,37.0,18.0,30.34,NW,317,7.0,9.0,45,0.00,,,0.00,,2013-02-22 21:42:00,
2013-02-22 16:52:00,36.0,18.0,30.34,NNW,329,6.0,10.0,47,0.00,,,0.00,,2013-02-22 21:52:00,
2013-02-22 17:01:00,35.0,18.0,30.33,NNE,17,4.0,9.0,49,0.00,,,0.00,,2013-02-22 22:01:00,
2013-02-22 17:11:00,35.0,18.0,30.33,NNE,17,4.0,9.0,49,0.00,,,0.00,,2013-02-22 22:11:00,
2013-02-22 17:21:00,34.0,19.0,30.34,NNE,22,4.0,9.0,54,0.00,,,0.00,,2013-02-22 22:21:00,
2013-02-22 17:32:00,32.0,17.0,30.34,NNW,342,4.0,8.0,54,0.00,,,0.00,,2013-02-22 22:32:00,
2013-02-22 17:42:00,32.0,17.0,30.34,NNW,342,4.0,8.0,54,0.00,,,0.00,,2013-02-22 22:42:00,
2013-02-22 17:51:00,31.0,17.0,30.34,NNW,335,3.0,6.0,56,0.00,,,0.00,,2013-02-22 22:51:00,
2013-02-22 18:01:00,29.0,18.0,30.35,North,5,3.0,6.0,63,0.00,,,0.00,,2013-02-22 23:01:00,
2013-02-22 18:11:00,29.0,18.0,30.35,North,5,3.0,6.0,63,0.00,,,0.00,,2013-02-22 23:11:00,
2013-02-22 18:21:00,29.0,19.0,30.35,North,5,6.0,12.0,66,0.00,,,0.00,,2013-02-22 23:21:00,
2013-02-22 18:32:00,29.0,18.0,30.36,North,355,4.0,9.0,63,0.00,,,0.00,,2013-02-22 23:32:00,
2013-02-22 18:42:00,29.0,18.0,30.36,North,355,4.0,9.0,63,0.00,,,0.00,,2013-02-22 23:42:00,
2013-02-22 18:52:00,29.0,19.0,30.36,North,355,5.0,7.0,65,0.00,,,0.00,,2013-02-22 23:52:00,
2013-02-22 19:02:00,28.0,18.0,30.36,NNW,343,5.0,10.0,66,0.00,,,0.00,,2013-02-23 00:02:00,
2013-02-22 19:11:00,28.0,18.0,30.36,North,5,5.0,8.0,67,0.00,,,0.00,,2013-02-23 00:11:00,
2013-02-22 19:21:00,28.0,18.0,30.36,North,5,5.0,8.0,67,0.00,,,0.00,,2013-02-23 00:21:00,
2013-02-22 19:32:00,28.0,19.0,30.36,NNE,29,6.0,12.0,68,0.00,,,0.00,,2013-02-23 00:32:00,
2013-02-22 19:42:00,28.0,19.0,30.36,NNE,29,6.0,12.0,68,0.00,,,0.00,,2013-02-23 00:42:00,
2013-02-22 19:51:00,28.0,19.0,30.35,NNE,24,8.0,12.0,69,0.00,,,0.00,,2013-02-23 00:51:00,
2013-02-22 20:01:00,28.0,19.0,30.35,NNE,29,7.0,11.0,68,0.00,,,0.00,,2013-02-23 01:01:00,
2013-02-22 20:11:00,28.0,19.0,30.35,NNE,29,7.0,11.0,68,0.00,,,0.00,,2013-02-23 01:11:00,
2013-02-22 20:21:00,29.0,20.0,30.35,NE,46,7.0,13.0,68,0.00,,,0.00,,2013-02-23 01:21:00,
2013-02-22 20:32:00,28.0,20.0,30.35,NE,40,5.0,11.0,70,0.00,,,0.00,,2013-02-23 01:32:00,
2013-02-22 20:42:00,28.0,20.0,30.35,NE,40,5.0,11.0,70,0.00,,,0.00,,2013-02-23 01:42:00,
2013-02-22 20:51:00,28.0,19.0,30.36,NNE,24,4.0,10.0,69,0.00,,,0.00,,2013-02-23 01:51:00,
2013-02-22 21:01:00,28.0,20.0,30.36,NE,38,4.0,8.0,71,0.00,,,0.00,,2013-02-23 02:01:00,
2013-02-22 21:11:00,28.0,20.0,30.36,NNE,26,5.0,9.0,71,0.00,,,0.00,,2013-02-23 02:11:00,
2013-02-22 21:21:00,28.0,20.0,30.36,NNE,26,5.0,9.0,71,0.00,,,0.00,,2013-02-23 02:21:00,
2013-02-22 21:32:00,28.0,20.0,30.37,NNE,29,6.0,10.0,71,0.00,,,0.00,,2013-02-23 02:32:00,
2013-02-22 21:42:00,28.0,20.0,30.37,NNE,29,6.0,10.0,71,0.00,,,0.00,,2013-02-23 02:42:00,
2013-02-22 21:52:00,27.0,19.0,30.36,NE,38,4.0,9.0,72,0.00,,,0.00,,2013-02-23 02:52:00,
2013-02-22 22:02:00,27.0,20.0,30.37,NE,34,3.0,6.0,73,0.00,,,0.00,,2013-02-23 03:02:00,
2013-02-22 22:11:00,27.0,20.0,30.37,NE,34,5.0,7.0,73,0.00,,,0.00,,2013-02-23 03:11:00,
2013-02-22 22:21:00,27.0,20.0,30.37,NE,34,5.0,7.0,73,0.00,,,0.00,,2013-02-23 03:21:00,
2013-02-22 22:32:00,27.0,20.0,30.38,NE,53,3.0,6.0,74,0.00,,,0.00,,2013-02-23 03:32:00,
2013-02-22 22:42:00,27.0,20.0,30.38,NE,53,3.0,6.0,74,0.00,,,0.00,,2013-02-23 03:42:00,
2013-02-22 22:51:00,27.0,20.0,30.38,NNE,30,5.0,7.0,74,0.00,,,0.00,,2013-02-23 03:51:00,
2013-02-22 23:01:00,27.0,20.0,30.37,NNE,31,4.0,8.0,74,0.00,,,0.00,,2013-02-23 04:01:00,
2013-02-22 23:11:00,27.0,20.0,30.37,NNE,29,3.0,6.0,75,0.00,,,0.00,,2013-02-23 04:11:00,
2013-02-22 23:21:00,27.0,20.0,30.37,NNE,29,3.0,6.0,75,0.00,,,0.00,,2013-02-23 04:21:00,
2013-02-22 23:32:00,26.0,19.0,30.37,NE,35,4.0,7.0,76,0.00,,,0.00,,2013-02-23 04:32:00,
2013-02-22 23:41:00,26.0,19.0,30.37,NE,35,4.0,7.0,76,0.00,,,0.00,,2013-02-23 04:41:00,
2013-02-22 23:51:00,26.0,19.0,30.37,NE,44,4.0,6.0,76,0.00,,,0.00,,2013-02-23 04:51:00,